TimeCDT,TemperatureF,Dew PointF,Humidity,Sea Level PressureIn,VisibilityMPH,Wind Direction,Wind SpeedMPH,Gust SpeedMPH,PrecipitationIn,Events,Conditions,WindDirDegrees,DateUTC
12:36 AM,30.2,30.2,100,29.97,3.0,NE,12.7,-,0.00,Snow,Light Snow,40,2013-03-24 05:36:00
12:48 AM,30.2,28.4,93,29.97,2.5,NNE,13.8,-,0.00,Snow,Light Snow,30,2013-03-24 05:48:00
12:53 AM,30.9,28.9,92,29.99,2.5,NE,12.7,-,0.00,Snow,Light Snow,40,2013-03-24 05:53:00
1:21 AM,30.2,28.4,93,29.96,1.2,NE,15.0,20.7,0.00,Snow,Light Snow,40,2013-03-24 06:21:00
1:53 AM,30.9,28.9,92,29.98,1.5,NE,9.2,-,0.00,Snow,Light Snow,50,2013-03-24 06:53:00
2:53 AM,30.9,28.0,89,29.96,1.5,ENE,15.0,-,0.00,Snow,Light Snow,60,2013-03-24 07:53:00
3:04 AM,30.2,28.4,93,29.94,1.5,NE,13.8,-,0.00,Snow,Light Snow,50,2013-03-24 08:04:00
3:53 AM,30.0,28.0,92,29.90,2.0,NE,13.8,-,0.00,Snow,Light Snow,50,2013-03-24 08:53:00
4:10 AM,30.2,28.4,93,29.88,1.8,NE,13.8,20.7,0.00,Snow,Light Snow,50,2013-03-24 09:10:00
4:32 AM,30.2,28.4,93,29.90,2.0,ENE,9.2,-,0.00,Snow,Light Snow,60,2013-03-24 09:32:00
4:44 AM,30.2,28.4,93,29.89,1.5,NE,13.8,-,0.00,Snow,Light Snow,40,2013-03-24 09:44:00
4:53 AM,30.0,28.0,92,29.91,1.2,NE,10.4,-,0.00,Snow,Light Snow,40,2013-03-24 09:53:00
5:03 AM,30.2,28.4,93,29.89,1.0,NE,10.4,-,0.00,Snow,Light Snow,40,2013-03-24 10:03:00
5:35 AM,30.2,28.4,93,29.88,3.0,NE,12.7,-,0.00,Snow,Light Snow,40,2013-03-24 10:35:00
5:41 AM,30.2,28.4,93,29.88,4.0,NE,11.5,-,0.00,Snow,Light Snow,50,2013-03-24 10:41:00
5:53 AM,30.0,27.0,88,29.90,5.0,NE,10.4,-,0.00,Snow,Light Snow,50,2013-03-24 10:53:00
6:34 AM,30.2,28.4,93,29.85,4.0,NE,12.7,-,0.00,Snow,Light Snow,40,2013-03-24 11:34:00
6:53 AM,30.0,28.0,92,29.86,4.0,NE,17.3,24.2,0.00,Snow,Light Snow,40,2013-03-24 11:53:00
7:20 AM,30.2,28.4,93,29.82,2.0,NNE,17.3,-,0.00,Snow,Light Snow,30,2013-03-24 12:20:00
7:53 AM,30.0,27.0,88,29.81,1.8,NNE,19.6,27.6,0.00,Snow,Light Snow,30,2013-03-24 12:53:00
8:13 AM,30.2,26.6,86,29.81,2.0,NE,16.1,23.0,0.00,Snow,Light Snow,40,2013-03-24 13:13:00
8:53 AM,30.0,27.0,88,29.83,1.5,NNE,15.0,-,0.00,Snow,Light Snow,20,2013-03-24 13:53:00
9:13 AM,30.2,26.6,86,29.82,1.5,North,12.7,-,0.00,Snow,Light Snow,10,2013-03-24 14:13:00
9:50 AM,30.2,28.4,93,29.82,0.8,North,12.7,-,0.00,Snow,Light Snow,10,2013-03-24 14:50:00
9:53 AM,30.0,28.0,92,29.84,0.5,North,10.4,-,0.00,Fog-Snow,Snow,10,2013-03-24 14:53:00
10:01 AM,30.2,28.4,93,29.82,0.2,North,10.4,-,0.00,Fog-Snow,Snow,360,2013-03-24 15:01:00
10:25 AM,30.2,28.4,93,29.82,0.5,North,12.7,-,0.00,Fog-Snow,Snow,10,2013-03-24 15:25:00
10:33 AM,30.2,28.4,93,29.81,0.2,North,15.0,-,0.00,Fog-Snow,Snow,10,2013-03-24 15:33:00
10:53 AM,30.0,28.0,92,29.83,0.2,North,13.8,-,0.00,Fog-Snow,Snow,360,2013-03-24 15:53:00
11:12 AM,30.2,26.6,86,29.80,0.5,North,16.1,-,0.00,Fog-Snow,Snow,10,2013-03-24 16:12:00
11:53 AM,30.0,28.0,92,29.81,0.5,North,13.8,-,0.00,Fog-Snow,Snow,360,2013-03-24 16:53:00
12:05 PM,30.2,28.4,93,29.79,0.8,North,13.8,-,0.00,Snow,Light Snow,360,2013-03-24 17:05:00
12:53 PM,30.9,28.0,89,29.79,0.5,North,15.0,-,0.00,Fog-Snow,Light Snow,360,2013-03-24 17:53:00
1:04 PM,30.2,28.4,93,29.76,0.8,North,13.8,-,0.00,Snow,Light Snow,360,2013-03-24 18:04:00
1:53 PM,32.0,28.9,88,29.76,0.8,North,15.0,-,0.03,Snow,Light Snow,360,2013-03-24 18:53:00
2:04 PM,32.0,28.4,87,29.74,1.0,North,16.1,23.0,0.02,Snow,Light Snow,350,2013-03-24 19:04:00
2:29 PM,32.0,28.4,87,29.73,1.0,North,17.3,-,N/A,Snow,Light Snow,360,2013-03-24 19:29:00
2:44 PM,32.0,28.4,87,29.72,0.8,North,16.1,24.2,0.08,Snow,Light Snow,360,2013-03-24 19:44:00
2:53 PM,32.0,28.9,88,29.74,0.8,North,13.8,20.7,0.09,Snow,Light Snow,360,2013-03-24 19:53:00
3:01 PM,32.0,28.4,87,29.72,0.8,North,16.1,24.2,0.01,Snow,Light Snow,360,2013-03-24 20:01:00
3:37 PM,32.0,28.4,87,29.73,0.5,North,17.3,23.0,0.03,Fog-Snow,Light Snow,360,2013-03-24 20:37:00
3:50 PM,32.0,28.4,87,29.73,0.8,North,17.3,25.3,0.03,Snow,Light Snow,350,2013-03-24 20:50:00
3:53 PM,32.0,28.9,88,29.75,0.8,North,15.0,-,0.03,Snow,Light Snow,360,2013-03-24 20:53:00
4:08 PM,32.0,28.4,87,29.73,0.8,North,18.4,-,0.01,Snow,Light Snow,360,2013-03-24 21:08:00
4:32 PM,32.0,30.2,93,29.74,0.8,North,16.1,-,0.01,Snow,Light Snow,360,2013-03-24 21:32:00
4:53 PM,32.0,28.9,88,29.77,0.5,North,16.1,21.9,0.02,Fog-Snow,Light Snow,360,2013-03-24 21:53:00
5:53 PM,32.0,28.9,88,29.79,0.8,North,15.0,21.9,0.00,Snow,Light Snow,350,2013-03-24 22:53:00
6:53 PM,30.2,28.4,93,29.79,1.0,NNW,15.0,-,N/A,Snow,Light Snow,340,2013-03-24 23:53:00
7:02 PM,30.2,28.4,93,29.79,0.8,NNW,15.0,23.0,0.00,Snow,Light Snow,340,2013-03-25 00:02:00
7:09 PM,30.2,28.4,93,29.80,1.0,North,16.1,23.0,0.00,Snow,Light Snow,350,2013-03-25 00:09:00
7:53 PM,30.9,28.0,89,29.83,1.5,North,18.4,26.5,0.00,Snow,Light Snow,350,2013-03-25 00:53:00
8:09 PM,30.2,28.4,93,29.82,2.0,NNW,18.4,27.6,0.00,Snow,Light Snow,340,2013-03-25 01:09:00
8:18 PM,30.2,28.4,93,29.82,2.0,NNW,18.4,27.6,0.00,Snow,Light Snow,340,2013-03-25 01:18:00
8:34 PM,30.2,28.4,93,29.83,1.8,North,17.3,26.5,0.00,Snow,Light Snow,350,2013-03-25 01:34:00
8:53 PM,30.0,28.0,92,29.85,1.8,North,19.6,28.8,0.00,Snow,Light Snow,350,2013-03-25 01:53:00
9:05 PM,30.2,28.4,93,29.83,2.0,North,15.0,-,0.00,Snow,Light Snow,350,2013-03-25 02:05:00
9:31 PM,30.2,28.4,93,29.84,1.8,North,17.3,24.2,0.00,Snow,Light Snow,350,2013-03-25 02:31:00
9:41 PM,30.2,28.4,93,29.84,1.8,NNW,15.0,-,0.00,Snow,Light Snow,340,2013-03-25 02:41:00
9:53 PM,30.0,28.0,92,29.87,2.0,North,18.4,25.3,0.00,Snow,Light Snow,350,2013-03-25 02:53:00
10:53 PM,30.0,28.0,92,29.87,3.0,North,13.8,20.7,0.00,Snow,Light Snow,350,2013-03-25 03:53:00
11:11 PM,30.2,28.4,93,29.84,3.0,NNW,13.8,-,0.00,Snow,Light Snow,340,2013-03-25 04:11:00
11:53 PM,30.0,27.0,88,29.87,3.0,NNW,12.7,-,0.00,Snow,Light Snow,340,2013-03-25 04:53:00
11:56 PM,30.2,26.6,86,29.85,2.5,NNW,12.7,20.7,0.00,Snow,Light Snow,340,2013-03-25 04:56:00